COSMOS 2463

导读 | 豆包AI

COSMOS 2463是独联体(CIS)于2010年4月27日8时发射的军用侦察卫星,隶属于苏联/俄罗斯“宇宙”系列卫星家族。该系列长期承担军事侦察、空间环境监测等机密任务,延续了冷战以来苏联/俄罗斯天基军事观测体系,此次发射延续了该系列常态化部署节奏,主要用于对地表目标进行光学成像侦察,为战略决策提供情报支持,服役期间稳定运行在近地轨道,完成了既定军事观测任务。

Basic Information
目录编号:
36519
目录名称:
COSMOS 2463
国际标识:
2010-017A
轨道中心:
EARTH
卫星名称:
COSMOS 2463
卫星全名:
--
卫星状态:
在轨 (已飞行5800 天)
发射日期:
2010-04-27 UTC
国别 :
俄罗斯(独联体) (CIS)
星等 :
--
Orbit Information
数据来源 国际轨道数据
星历时间: 2026-03-13T22:56:21+0800
12小时前
查看轨道信息
半长轴: 7371.761km
偏心率: 0.0037004
轨道倾角: 82.963°
近地点辐角 36.907°
升交点赤经 319.943°
平近点角 337.949°
近地点: 966.345km
远地点: 1020.903km
周期: 104.982分钟
每日圈数: 13.716583
Detailed Information
使用方式:
暂无
2D Orbit Map
3D Orbit Map
Orbit Altitude Analysis Chart
Orbit Inclination Analysis Chart
Orbit Comprehensive Analysis Chart
View Comprehensive Chart